Roxboro, NC

11:06 AM EDT on March 24, 2017 (GMT -0400)
Person County

Weather History for KTDF - January, 2013

Change the Weather History Date:

Thursday, January 24, 2013

  Actual Average Record
Temperature  
Mean Temperature 27 °F -  
Max Temperature 33 °F 49 °F 75 °F (1967)
Min Temperature 21 °F 26 °F 3 °F (1963)
Degree Days  
Heating Degree Days 38    
Moisture  
Dew Point 10 °F    
Average Humidity 45    
Maximum Humidity 70    
Minimum Humidity 27    
Precipitation  
Precipitation 0.00 in - - ()
Sea Level Pressure  
Sea Level Pressure 30.28 in    
Wind  
Wind Speed 6 mph (North)    
Max Wind Speed 18 mph    
Max Gust Speed 26 mph    
Visibility 10 miles    
Events      
Averages and records for this station are not official NWS values.
T = Trace of Precipitation, MM = Missing Value Source: NWS Daily Summary

Daily Weather History Graph

Daily Weather History Graph

Search for Another Location

Airport or City:

Trip Planner

Search our weather history database for the weather conditions in past years. The results will help you decide how hot, cold, wet, or windy it might be!

Date:

Astronomy

Jan. 24, 2013 Rise Set
Actual Time 7:22 AM EST 5:34 PM EST
Civil Twilight 6:54 AM EST 6:01 PM EST
Nautical Twilight 6:23 AM EST 6:32 PM EST
Astronomical Twilight 5:53 AM EST 7:03 PM EST
Moon 3:35 PM EST 5:17 AM EST
Length of Visible Light 11h 06m
Length of Day
10h 11m
Waxing Gibbous, 94% of the Moon is Illuminated
Jan 24
Waxing Gibbous
Jan 26
Full
Feb 3
Last Quarter
Feb 10
New
Feb 17
First Quarter

Hourly Weather History & Observations

Time (EST) Temp. Windchill Dew Point Humidity Pressure Visibility Wind Dir Wind Speed Gust Speed Precip Events Conditions
12:15 AM 32.0 °F 28.7 °F 17.6 °F 55% 30.04 in 10.0 mi South 3.5 mph - N/A   Clear
12:35 AM 30.2 °F 25.4 °F 17.6 °F 60% 30.03 in 10.0 mi SSW 4.6 mph - N/A   Clear
12:55 AM 30.2 °F 25.4 °F 17.6 °F 60% 30.02 in 10.0 mi SSW 4.6 mph - N/A   Clear
1:15 AM 30.2 °F 26.7 °F 17.6 °F 60% 30.02 in 10.0 mi SSW 3.5 mph - N/A   Clear
1:35 AM 30.2 °F - 17.6 °F 60% 30.01 in 10.0 mi Calm Calm - N/A   Clear
1:55 AM 30.2 °F - 17.6 °F 60% 30.00 in 10.0 mi Calm Calm - N/A   Clear
2:15 AM 30.2 °F - 17.6 °F 60% 30.00 in 10.0 mi Calm Calm - N/A   Mostly Cloudy
2:35 AM 32.0 °F 28.7 °F 19.4 °F 60% 29.98 in 10.0 mi SW 3.5 mph - N/A   Overcast
2:55 AM 32.0 °F 28.7 °F 21.2 °F 64% 29.97 in 10.0 mi WSW 3.5 mph - N/A   Overcast
3:15 AM 32.0 °F 25.6 °F 21.2 °F 64% 29.97 in 10.0 mi SW 6.9 mph - N/A   Overcast
3:35 AM 33.8 °F 28.6 °F 23.0 °F 65% 29.96 in 10.0 mi SW 5.8 mph - N/A   Overcast
3:55 AM 33.8 °F 30.8 °F 23.0 °F 65% 29.96 in 10.0 mi WSW 3.5 mph - N/A   Overcast
4:15 AM 33.8 °F - 23.0 °F 65% 29.97 in 10.0 mi Calm Calm - N/A   Overcast
4:35 AM 33.8 °F 28.6 °F 24.8 °F 70% 29.98 in 10.0 mi NNW 5.8 mph - N/A   Overcast
4:55 AM 33.8 °F 29.6 °F 23.0 °F 65% 29.99 in 10.0 mi NW 4.6 mph - N/A   Overcast
5:15 AM 33.8 °F 27.0 °F 21.2 °F 60% 30.01 in 10.0 mi NNW 8.1 mph - N/A   Overcast
5:35 AM 32.0 °F 28.7 °F 21.2 °F 64% 30.02 in 10.0 mi North 3.5 mph - N/A   Overcast
5:55 AM 32.0 °F 28.7 °F 21.2 °F 64% 30.03 in 10.0 mi North 3.5 mph - N/A   Scattered Clouds
6:15 AM 32.0 °F 28.7 °F 19.4 °F 60% 30.05 in 10.0 mi North 3.5 mph - N/A   Clear
6:35 AM 30.2 °F 26.7 °F 19.4 °F 64% 30.07 in 10.0 mi North 3.5 mph - N/A   Clear
6:55 AM 30.2 °F 24.3 °F 19.4 °F 64% 30.09 in 10.0 mi North 5.8 mph - N/A   Scattered Clouds
7:15 AM 30.2 °F 26.7 °F 19.4 °F 64% 30.11 in 10.0 mi NNE 3.5 mph - N/A   Clear
7:35 AM 30.2 °F - 17.6 °F 60% 30.12 in 10.0 mi Calm Calm - N/A   Clear
7:55 AM 30.2 °F 25.4 °F 17.6 °F 60% 30.14 in 10.0 mi North 4.6 mph - N/A   Clear
8:15 AM 30.2 °F 23.4 °F 17.6 °F 60% 30.15 in 10.0 mi North 6.9 mph - N/A   Clear
8:35 AM 32.0 °F 25.6 °F 17.6 °F 55% 30.17 in 10.0 mi North 6.9 mph - N/A   Clear
8:55 AM 32.0 °F 24.8 °F 17.6 °F 55% 30.19 in 10.0 mi North 8.1 mph - N/A   Clear
9:15 AM 32.0 °F 24.2 °F 17.6 °F 55% 30.21 in 10.0 mi North 9.2 mph 20.7 mph N/A   Clear
9:35 AM 33.8 °F 23.2 °F 15.8 °F 48% 30.23 in 10.0 mi North 17.3 mph 24.2 mph N/A   Scattered Clouds
9:55 AM 33.8 °F 23.5 °F 14.0 °F 44% 30.24 in 10.0 mi North 16.1 mph 26.5 mph N/A   Mostly Cloudy
10:15 AM 32.0 °F 22.5 °F 12.2 °F 44% 30.27 in 10.0 mi North 12.7 mph 23.0 mph N/A   Overcast
10:35 AM 32.0 °F 24.2 °F 14.0 °F 48% 30.29 in 10.0 mi North 9.2 mph 23.0 mph N/A   Mostly Cloudy
10:55 AM 32.0 °F 22.1 °F 12.2 °F 44% 30.29 in 10.0 mi North 13.8 mph 25.3 mph N/A   Mostly Cloudy
11:15 AM 32.0 °F 22.5 °F 8.6 °F 38% 30.31 in 10.0 mi North 12.7 mph 25.3 mph N/A   Scattered Clouds
11:35 AM 32.0 °F 21.2 °F 8.6 °F 38% 30.32 in 10.0 mi North 16.1 mph 25.3 mph N/A   Clear
11:55 AM 32.0 °F 20.5 °F 5.0 °F 32% 30.34 in 10.0 mi NNW 18.4 mph 26.5 mph N/A   Clear
12:15 PM 32.0 °F 22.1 °F 3.2 °F 30% 30.35 in 10.0 mi NNW 13.8 mph 23.0 mph N/A   Clear
12:35 PM 32.0 °F 22.1 °F 3.2 °F 30% 30.34 in 10.0 mi NNW 13.8 mph 24.2 mph N/A   Clear
12:55 PM 32.0 °F 23.6 °F 3.2 °F 30% 30.35 in 10.0 mi NW 10.4 mph 21.9 mph N/A   Clear
1:15 PM 32.0 °F 23.0 °F 3.2 °F 30% 30.36 in 10.0 mi North 11.5 mph 20.7 mph N/A   Clear
1:35 PM 32.0 °F 22.1 °F 5.0 °F 32% 30.35 in 10.0 mi North 13.8 mph 18.4 mph N/A   Clear
1:55 PM 32.0 °F 23.0 °F 3.2 °F 30% 30.36 in 10.0 mi North 11.5 mph 20.7 mph N/A   Clear
2:15 PM 32.0 °F 22.1 °F 3.2 °F 30% 30.37 in 10.0 mi North 13.8 mph 20.7 mph N/A   Clear
2:35 PM 32.0 °F 22.5 °F 3.2 °F 30% 30.37 in 10.0 mi NNW 12.7 mph 18.4 mph N/A   Clear
2:55 PM 32.0 °F 21.6 °F 3.2 °F 30% 30.38 in 10.0 mi NNW 15.0 mph 20.7 mph N/A   Clear
3:15 PM 32.0 °F 23.6 °F 1.4 °F 27% 30.39 in 10.0 mi North 10.4 mph 16.1 mph N/A   Clear
3:35 PM 32.0 °F 26.4 °F 1.4 °F 27% 30.40 in 10.0 mi North 5.8 mph 17.3 mph N/A   Clear
3:55 PM 32.0 °F 26.4 °F 1.4 °F 27% 30.42 in 10.0 mi North 5.8 mph - N/A   Clear
4:15 PM 32.0 °F 23.6 °F 3.2 °F 30% 30.41 in 10.0 mi North 10.4 mph - N/A   Clear
4:35 PM 32.0 °F 25.6 °F 1.4 °F 27% 30.42 in 10.0 mi NNE 6.9 mph - N/A   Clear
4:55 PM 30.2 °F 21.3 °F 1.4 °F 29% 30.44 in 10.0 mi North 10.4 mph - N/A   Clear
5:15 PM 30.2 °F 22.6 °F -0.4 °F 27% 30.45 in 10.0 mi NNE 8.1 mph - N/A   Clear
5:35 PM 30.2 °F 21.9 °F -0.4 °F 27% 30.45 in 10.0 mi NNE 9.2 mph - N/A   Clear
5:55 PM 28.4 °F 23.3 °F -0.4 °F 29% 30.47 in 10.0 mi North 4.6 mph - N/A   Clear
6:15 PM 28.4 °F 20.4 °F -0.4 °F 29% 30.47 in 10.0 mi NNE 8.1 mph - N/A   Clear
6:35 PM 28.4 °F 22.2 °F -0.4 °F 29% 30.48 in 10.0 mi NNE 5.8 mph - N/A   Clear
6:55 PM 28.4 °F 23.3 °F 1.4 °F 31% 30.50 in 10.0 mi North 4.6 mph - N/A   Clear
7:15 PM 26.6 °F - -0.4 °F 31% 30.50 in 10.0 mi Calm Calm - N/A   Clear
7:35 PM 26.6 °F 22.6 °F -0.4 °F 31% 30.51 in 10.0 mi NNE 3.5 mph - N/A   Clear
7:55 PM 26.6 °F 22.6 °F -0.4 °F 31% 30.51 in 10.0 mi NNE 3.5 mph - N/A   Clear
8:15 PM 26.6 °F 21.2 °F -0.4 °F 31% 30.51 in 10.0 mi NNE 4.6 mph - N/A   Clear
8:35 PM 26.6 °F 22.6 °F 1.4 °F 34% 30.51 in 10.0 mi NNE 3.5 mph - N/A   Clear
8:55 PM 26.6 °F 21.2 °F 1.4 °F 34% 30.52 in 10.0 mi NNE 4.6 mph - N/A   Clear
9:15 PM 23.0 °F - 1.4 °F 39% 30.52 in 10.0 mi Calm Calm - N/A   Clear
9:35 PM 23.0 °F - 3.2 °F 43% 30.52 in 10.0 mi Calm Calm - N/A   Clear
9:55 PM 23.0 °F 18.4 °F 3.2 °F 43% 30.52 in 10.0 mi NE 3.5 mph - N/A   Clear
10:15 PM 23.0 °F - 3.2 °F 43% 30.52 in 10.0 mi Calm Calm - N/A   Clear
10:35 PM 23.0 °F - 3.2 °F 43% 30.52 in 10.0 mi Calm Calm - N/A   Clear
10:55 PM 23.0 °F - 3.2 °F 43% 30.52 in 10.0 mi Calm Calm - N/A   Clear
11:15 PM 21.2 °F - 5.0 °F 50% 30.52 in 10.0 mi Calm Calm - N/A   Clear
11:35 PM 21.2 °F - 3.2 °F 46% 30.52 in 10.0 mi Calm Calm - N/A   Clear
11:55 PM 21.2 °F 16.4 °F 3.2 °F 46% 30.52 in 10.0 mi NE 3.5 mph - N/A   Clear